Time,TemperatureF,DewpointF,PressureIn,WindDirection,WindDirectionDegrees,WindSpeedMPH,WindSpeedGustMPH,Humidity,HourlyPrecipIn,Conditions,Clouds,dailyrainin,SoftwareType,DateUTC
2013-07-09 00:27:00,51.5,49.8,29.97,WNW,294,5.0,5.0,94,0.00,,,0.00,Wunderground v.1.15,2013-07-09 07:27:00,
2013-07-09 00:57:00,51.1,49.7,29.97,NW,315,4.0,4.0,95,0.00,,,0.00,Wunderground v.1.15,2013-07-09 07:57:00,
2013-07-09 01:27:00,50.9,49.2,29.97,WNW,296,2.0,2.0,94,0.00,,,0.00,Wunderground v.1.15,2013-07-09 08:27:00,
2013-07-09 01:57:00,50.5,49.1,29.98,North,3,2.0,3.0,95,0.00,,,0.00,Wunderground v.1.15,2013-07-09 08:57:00,
2013-07-09 02:27:00,49.9,48.2,29.98,WNW,299,1.0,3.0,94,0.00,,,0.00,Wunderground v.1.15,2013-07-09 09:27:00,
2013-07-09 02:57:00,49.7,48.3,29.98,NNW,338,2.0,2.0,95,0.00,,,0.00,Wunderground v.1.15,2013-07-09 09:57:00,
2013-07-09 03:27:00,49.7,48.3,29.98,NNW,330,2.0,2.0,95,0.00,,,0.00,Wunderground v.1.15,2013-07-09 10:27:00,
2013-07-09 03:57:00,49.4,48.0,29.99,North,355,2.0,2.0,95,0.00,,,0.00,Wunderground v.1.15,2013-07-09 10:57:00,
2013-07-09 04:27:00,49.3,47.9,29.98,North,3,2.0,2.0,95,0.00,,,0.00,Wunderground v.1.15,2013-07-09 11:27:00,
2013-07-09 04:57:00,49.3,48.2,29.99,North,349,2.0,4.0,96,0.00,,,0.00,Wunderground v.1.15,2013-07-09 11:57:00,
2013-07-09 05:27:00,49.6,48.5,30.00,North,359,1.0,4.0,96,0.00,,,0.00,Wunderground v.1.15,2013-07-09 12:27:00,
2013-07-09 05:57:00,49.5,48.4,30.00,North,349,2.0,2.0,96,0.00,,,0.00,Wunderground v.1.15,2013-07-09 12:57:00,
2013-07-09 06:27:00,49.8,48.7,30.01,NNW,331,1.0,1.0,96,0.00,,,0.00,Wunderground v.1.15,2013-07-09 13:27:00,
2013-07-09 06:57:00,50.0,48.9,30.01,NNW,344,0.0,0.0,96,0.00,,,0.00,Wunderground v.1.15,2013-07-09 13:57:00,
2013-07-09 07:27:00,51.1,50.0,30.02,WNW,289,0.0,1.0,96,0.00,,,0.00,Wunderground v.1.15,2013-07-09 14:27:00,
2013-07-09 07:57:00,51.2,49.8,30.03,WNW,292,1.0,1.0,95,0.00,,,0.00,Wunderground v.1.15,2013-07-09 14:57:00,
2013-07-09 08:27:00,53.2,51.2,30.02,WNW,291,1.0,1.0,93,0.00,,,0.00,Wunderground v.1.15,2013-07-09 15:27:00,
2013-07-09 08:57:00,57.7,52.9,30.02,SW,215,1.0,1.0,84,0.00,,,0.00,Wunderground v.1.15,2013-07-09 15:57:00,
2013-07-09 09:27:00,60.4,53.2,30.02,SSE,150,1.0,3.0,77,0.00,,,0.00,Wunderground v.1.15,2013-07-09 16:27:00,
2013-07-09 09:57:00,63.7,53.7,30.01,SE,136,1.0,3.0,70,0.00,,,0.00,Wunderground v.1.15,2013-07-09 16:57:00,
2013-07-09 10:27:00,66.7,54.1,30.01,SSE,147,1.0,2.0,64,0.00,,,0.00,Wunderground v.1.15,2013-07-09 17:27:00,
2013-07-09 10:57:00,69.0,54.1,30.01,SE,128,3.0,3.0,59,0.00,,,0.00,Wunderground v.1.15,2013-07-09 17:57:00,
2013-07-09 11:27:00,73.3,55.1,30.00,ESE,123,2.0,2.0,53,0.00,,,0.00,Wunderground v.1.15,2013-07-09 18:27:00,
2013-07-09 11:57:00,76.1,55.0,30.00,SW,223,3.0,3.0,48,0.00,,,0.00,Wunderground v.1.15,2013-07-09 18:57:00,
2013-07-09 12:27:00,78.9,55.1,30.00,South,170,3.0,3.0,44,0.00,,,0.00,Wunderground v.1.15,2013-07-09 19:27:00,
2013-07-09 12:57:00,81.7,55.7,29.99,SSE,162,2.0,2.0,41,0.00,,,0.00,Wunderground v.1.15,2013-07-09 19:57:00,
2013-07-09 13:27:00,83.1,55.6,29.98,SSE,158,3.0,3.0,39,0.00,,,0.00,Wunderground v.1.15,2013-07-09 20:27:00,
2013-07-09 13:57:00,85.6,54.8,29.97,SE,133,4.0,4.0,35,0.00,,,0.00,Wunderground v.1.15,2013-07-09 20:57:00,
2013-07-09 14:27:00,87.1,54.5,29.97,SSE,155,1.0,1.0,33,0.00,,,0.00,Wunderground v.1.15,2013-07-09 21:27:00,
2013-07-09 14:57:00,86.0,58.2,29.96,West,263,8.0,8.0,39,0.00,,,0.00,Wunderground v.1.15,2013-07-09 21:57:00,
2013-07-09 15:27:00,85.2,58.8,29.96,WNW,291,10.0,13.0,41,0.00,,,0.00,Wunderground v.1.15,2013-07-09 22:27:00,
2013-07-09 15:57:00,84.6,57.6,29.95,WNW,286,10.0,12.0,40,0.00,,,0.00,Wunderground v.1.15,2013-07-09 22:57:00,
2013-07-09 16:27:00,82.7,57.3,29.95,WNW,294,11.0,11.0,42,0.00,,,0.00,Wunderground v.1.15,2013-07-09 23:27:00,
2013-07-09 16:57:00,82.5,56.4,29.94,WNW,292,9.0,11.0,41,0.00,,,0.00,Wunderground v.1.15,2013-07-09 23:57:00,
2013-07-09 17:27:00,80.7,54.8,29.93,NW,311,12.0,12.0,41,0.00,,,0.00,Wunderground v.1.15,2013-07-10 00:27:00,
2013-07-09 17:57:00,79.1,54.0,29.92,WNW,301,9.0,9.0,42,0.00,,,0.00,Wunderground v.1.15,2013-07-10 00:57:00,
2013-07-09 18:27:00,77.2,51.7,29.92,WNW,290,9.0,9.0,41,0.00,,,0.00,Wunderground v.1.15,2013-07-10 01:27:00,
2013-07-09 18:57:00,75.3,51.3,29.92,NW,306,7.0,8.0,43,0.00,,,0.00,Wunderground v.1.15,2013-07-10 01:57:00,
2013-07-09 19:27:00,71.7,52.1,29.92,WNW,298,10.0,10.0,50,0.00,,,0.00,Wunderground v.1.15,2013-07-10 02:27:00,
2013-07-09 19:57:00,68.8,52.5,29.93,West,273,6.0,6.0,56,0.00,,,0.00,Wunderground v.1.15,2013-07-10 02:57:00,
2013-07-09 20:27:00,67.3,51.1,29.93,WNW,299,5.0,6.0,56,0.00,,,0.00,Wunderground v.1.15,2013-07-10 03:27:00,
2013-07-09 20:57:00,63.3,52.2,29.92,WNW,298,8.0,10.0,67,0.00,,,0.00,Wunderground v.1.15,2013-07-10 03:57:00,
2013-07-09 21:27:00,62.4,50.9,29.93,WNW,286,7.0,7.0,66,0.00,,,0.00,Wunderground v.1.15,2013-07-10 04:27:00,
2013-07-09 21:57:00,61.2,50.2,29.94,WNW,286,7.0,7.0,67,0.00,,,0.00,Wunderground v.1.15,2013-07-10 04:57:00,
2013-07-09 22:27:00,59.9,50.1,29.95,WNW,294,7.0,7.0,70,0.00,,,0.00,Wunderground v.1.15,2013-07-10 05:27:00,
2013-07-09 22:57:00,58.6,50.7,29.95,WNW,286,7.0,8.0,75,0.00,,,0.00,Wunderground v.1.15,2013-07-10 05:57:00,
2013-07-09 23:27:00,56.0,49.6,29.96,West,269,9.0,9.0,79,0.00,,,0.00,Wunderground v.1.15,2013-07-10 06:27:00,
2013-07-09 23:58:00,53.7,49.0,29.97,WNW,284,7.0,8.0,84,0.00,,,0.00,Wunderground v.1.15,2013-07-10 06:58:00,